STARLINK-32539, 62022

Orbit data source: Space-Track

STARLINK-32539, 62022 is a payload satellite owned by SpaceX/Seattle (US) in LEO that was launched on Mon, 18 Nov 2024 UTC via an FALCON 9 launch vehicle from the Air Force Western Test Range (AFWTR). Payload-class satellites include a variety of spacecraft equipped with specific instruments for various scientific and technological missions. These include communications satellites like Starlink; space stations such as the ISS; scientific satellites like the Hubble; Earth observation satellites from companies like Planet Labs, Umbra, and HawkEye 360; GPS; miniature CubeSats for education and research; and military/defense satellites.

Loading next visibility...
Identifier
62022, 2024-213Q
Orbit
LEO
Country
Flag of USUS
Related business
Manufacturer
SpaceX/Seattle
Mission
Operational Commercial Communications
Bus & Motor
STARLINK V2M, Unknown motor
Mass
730 kg wet, ~700 kg dry
Launch date (UTC)
2024-11-18 (1 year ago)
Launch vehicle
FALCON 9
Launch site
Air Force Western Test Range (AFWTR)
Object type
Payload
Rocket body
Debris
Shape & HBR
Box + 2 Pan, 17.7 m
Radar Cross Section
33.884 m², Large (>1 m²)

Expand to show TLE details & history
Last TLE update: 5 hours ago

TLE from 5 hours ago
0 STARLINK-32539
1 62022U 24213Q   26123.65291200  .00024166  00000-0  82558-3 0  9993
2 62022  53.1599 260.3072 0001431  91.6375 268.4789 15.30193134 81740
Epoch: 2026-05-03T15:40Z
TLE epoch observation values (Epoch: 2026-05-03T15:40:11.596Z)
Latitude
-0.00009°
Longitude
163.70544°
Altitude
476.161 km
Speed
7.629 km/s
True Right ascension
17h 21m 13s
True Declination
0° 00' 00"
Sunlit
Object was in full shadow at epoch
Visualization orbit readout
Latitude
Unknown
Longitude
Unknown
Altitude
Unknown
Speed
Unknown
Apparent Right ascension
Unknown
Apparent Declination
Unknown
Sunlit
N/A
Visualization observer readout
Local Sidereal Time
04:21:05
Azimuth
Unknown
Elevation
Unknown
Doppler factor
Unknown
Orbital elements
Apogee altitude
476.473 km
Perigee altitude
474.511 km
Semi-major axis
6,853.629 km
Eccentricity
0.00014
Inclination
53.1599°
RAAN
260.3072°
Arg. of periapsis
91.6375°
True anomaly
268.46251°
Mean anomaly
268.4789°
Eccentric anomaly
268.4707°
Mean motion
3.82527 °/min
Orbital period
94.11 mins
BSTAR
0.00082558
Loading maneuver chart data...
Computing Atmospheric mass density...
Loading historical data...
Loading historical data...
Loading historical data...
Loading historical data...
Loading historical data...
Loading historical data...
Loading historical data...

Documentation

Showing up to 5 results
|